Flag for U.S.A. Weather past 2 weeks in Kansas City, Missouri, U.S.A.

Now
82 °F

Clear.


Feels Like: 84 °F
Forecast: 77 / 94 °F
Wind: 16 mph from South

Location: Kansas City Downtown Airport

Current Time: Aug 21, 2014 at 4:01:24 AM

Latest Report: Aug 21, 2014 at 2:54 AM


Visibility: 10 mi

Pressure: 29.85 "Hg

Humidity: 60%

Dew point: 67 °F

Location of Kansas CityLocation

Historic Weather in Kansas City — Graph

°F

Kansas City temperature yesterday

Maximum temperature yesterday: 93 °F (at 1:54 PM)
Minimum temperature yesterday: 80 °F (at 6:54 AM)
Average temperature yesterday: 87 °F

Past Weeks' High & Low Weather Summary

 TemperatureHumidityPressure
High93 °F (Aug 19, 2:54 PM)93% (Aug 6, 5:54 PM)30.15 "Hg (Aug 6, 5:54 PM)
Low61 °F (Aug 13, 5:54 AM)40% (Aug 14, 5:54 PM)29.73 "Hg (Aug 19, 5:54 AM)
Average77 °F71%29.93 "Hg
* Reported Aug 6 2:54 AM — Aug 21 2:54 AM, Kansas City, Weather by CustomWeather, © 2014

Note: Actual official high and low records may vary slightly from our data, if they occured in-between our weather recording intervals... More about our weather records

Advertising

Kansas City weather history for previous 24 hours

 ConditionsComfort  
Time TempWeatherWind HumidityBarometerVisibility
2:54 AM
Aug 21
82 °FClear.16 mph60%29.85 "Hg10 mi
1:54 AM82 °FPassing clouds.17 mph60%29.85 "Hg10 mi
12:54 AM83 °FClear.12 mph59%29.86 "Hg10 mi
11:54 PM
Aug 20
84 °FClear.14 mph57%29.86 "Hg10 mi
10:54 PM85 °FClear.12 mph55%29.85 "Hg10 mi
9:54 PM86 °FClear.10 mph55%29.83 "Hg10 mi
8:54 PM88 °FSunny.12 mph55%29.80 "Hg10 mi
7:54 PM89 °FSunny.14 mph55%29.78 "Hg10 mi
6:54 PM91 °FSunny.13 mph50%29.78 "Hg10 mi
5:54 PM92 °FPassing clouds.10 mph49%29.79 "Hg10 mi
4:54 PM93 °FBroken clouds.14 mph47%29.79 "Hg10 mi
3:54 PM93 °FScattered clouds.18 mph44%29.80 "Hg10 mi
2:54 PM92 °FBroken clouds.10 mph47%29.83 "Hg10 mi
1:54 PM93 °FScattered clouds.12 mph47%29.83 "Hg10 mi
12:54 PM91 °FPassing clouds.12 mph50%29.85 "Hg10 mi
11:54 AM91 °FSunny.14 mph50%29.85 "Hg10 mi
10:54 AM88 °FSunny.13 mph57%29.85 "Hg10 mi
9:54 AM86 °FSunny.12 mph59%29.84 "Hg10 mi
8:54 AM83 °FSunny.14 mph63%29.84 "Hg10 mi
7:54 AM80 °FSunny.12 mph69%29.82 "Hg10 mi
6:54 AM80 °FClear.7 mph67%29.82 "Hg10 mi
5:54 AM81 °FClear.9 mph65%29.79 "Hg10 mi
4:54 AM82 °FClear.13 mph65%29.78 "Hg10 mi
Weather by CustomWeather, © 2014

See weather overviewHow to use our weather pages